{"data":{"norad_id":64472,"intl_designator":"2025-133A","name":"STARLINK-34493","alt_names":[],"object_type":"PAYLOAD","status":"ACTIVE","operator":null,"country":"US","launch_date":"2025-06-23","launch_site_code":"AFETR","launch_vehicle":null,"mission":null,"orbit_class":"UNKNOWN","rcs_meters":null,"size_class":null,"mass_kg":null,"dimensions":null,"purposes":["comms"],"wikipedia_slug":null,"has_3d_model":false,"image_url":null,"decayed_at":null,"tle_current":{"epoch":"2026-09-20T14:09:49.768704Z","epoch_age_seconds":123600,"freshness":"FRESH","line1":"1 64472U 25133A   26263.59015936  .00008920  00000+0  27478-3 0  9993","line2":"2 64472  53.1595 289.0212 0001166  87.0805 273.0331 15.34402581 71065","mean_motion":15.34402581,"eccentricity":0.0001166,"inclination_deg":53.1595,"raan_deg":289.0212,"arg_perigee_deg":87.0805,"mean_anomaly_deg":273.0331,"bstar":0.00027478,"rev_number":7106,"period_min":93.847600221157,"perigee_km":461.8979278644,"apogee_km":463.49321001948,"semimajor_km":6840.8325689419,"source":"CELESTRAK","updated_at":"2026-09-21T09:00:35.358014Z"}}}